Weather History for Harrisburg, IL

Change the Weather History Date:

Tuesday, November 20, 2012

  Actual Average (KMWA) Record (KMWA)
Temperature  
Mean Temperature 57 °F -  
Max Temperature 66 °F 57 °F 75 °F (1985)
Min Temperature 48 °F 37 °F 20 °F (1980)
Degree Days  
Heating Degree Days 8    
Growing Degree Days 7 (Base 50)    
Moisture  
Dew Point 46 °F    
Average Humidity 69    
Maximum Humidity 88    
Minimum Humidity 52    
Precipitation  
Precipitation 0.00 in - - ()
Sea Level Pressure  
Sea Level Pressure 30.12 in    
Wind  
Wind Speed 3 mph (NNW)    
Max Wind Speed 9 mph    
Max Gust Speed -    
Visibility 10 miles    
Events      
Averages and records for this station are not official NWS values.
T = Trace of Precipitation, MM = Missing Value Source: NWS Daily Summary

Daily Weather History Graph

Daily Weather History Graph

Search for Another Location

Airport:

Trip Planner

Search our weather history database for the weather conditions in past years. The results will help you decide how hot, cold, wet, or windy it might be!

Date:

Astronomy

Nov. 20, 2012 Rise Set
Actual Time 6:40 AM CST 4:39 PM CST
Civil Twilight 6:11 AM CST 5:07 PM CST
Nautical Twilight 5:39 AM CST 5:39 PM CST
Astronomical Twilight 5:08 AM CST 6:10 PM CST
Moon 12:18 PM CST (11/20) No Moon Set
Length of Visible Light 10h 55m
Length of Day
9h 58m
First Quarter, 51% of the Moon is Illuminated
Nov 20
First Quarter
Nov 28
Full
Dec 6
Last Quarter
Dec 13
New
Dec 19
First Quarter

Hourly Weather History & Observations

Time (CST) Temp. Dew Point Humidity Pressure Visibility Wind Dir Wind Speed Gust Speed Precip Events Conditions
12:15 AM 48.2 °F 42.8 °F 82% 30.15 in 10.0 mi Calm Calm - N/A   Overcast
12:35 AM 50.0 °F 42.8 °F 76% 30.15 in 10.0 mi NNE 3.5 mph - N/A   Overcast
12:55 AM 50.0 °F 42.8 °F 76% 30.15 in 10.0 mi Calm Calm - N/A   Overcast
1:15 AM 50.0 °F 42.8 °F 76% 30.15 in 10.0 mi Calm Calm - N/A   Overcast
1:35 AM 50.0 °F 42.8 °F 76% 30.15 in 10.0 mi Calm Calm - N/A   Overcast
1:55 AM 50.0 °F 42.8 °F 76% 30.15 in 10.0 mi Calm Calm - N/A   Overcast
2:15 AM 50.0 °F 42.8 °F 76% 30.14 in 10.0 mi Calm Calm - N/A   Mostly Cloudy
2:35 AM 48.2 °F 42.8 °F 82% 30.15 in 10.0 mi Calm Calm - N/A   Overcast
5:16 AM 51.8 °F 44.6 °F 76% 30.11 in 10.0 mi Calm Calm - N/A   Overcast
6:15 AM 51.8 °F 42.8 °F 71% 30.12 in 10.0 mi Calm Calm - N/A   Overcast
6:35 AM 51.8 °F 42.8 °F 71% 30.13 in 10.0 mi Calm Calm - N/A   Overcast
6:55 AM 51.8 °F 44.6 °F 76% 30.13 in 10.0 mi Calm Calm - N/A   Overcast
7:15 AM 51.8 °F 42.8 °F 71% 30.13 in 10.0 mi Calm Calm - N/A   Overcast
7:35 AM 51.8 °F 42.8 °F 71% 30.13 in 10.0 mi NNE 3.5 mph - N/A   Mostly Cloudy
7:55 AM 51.8 °F 42.8 °F 71% 30.13 in 10.0 mi WSW 4.6 mph - N/A   Clear
8:15 AM 53.6 °F 44.6 °F 72% 30.13 in 10.0 mi NNE 4.6 mph - N/A   Clear
8:35 AM 55.4 °F 44.6 °F 67% 30.13 in 10.0 mi West 4.6 mph - N/A   Clear
8:55 AM 55.4 °F 44.6 °F 67% 30.12 in 10.0 mi WSW 5.8 mph - N/A   Clear
9:15 AM 59.0 °F 44.6 °F 59% 30.12 in 10.0 mi West 6.9 mph - N/A   Clear
9:35 AM 59.0 °F 44.6 °F 59% 30.13 in 10.0 mi WSW 9.2 mph - N/A   Clear
9:55 AM 60.8 °F 44.6 °F 55% 30.13 in 10.0 mi WSW 8.1 mph - N/A   Clear
10:15 AM 60.8 °F 44.6 °F 55% 30.11 in 10.0 mi NW 6.9 mph - N/A   Clear
10:35 AM 62.6 °F 44.6 °F 52% 30.11 in 10.0 mi WNW 6.9 mph - N/A   Clear
10:55 AM 62.6 °F 46.4 °F 55% 30.11 in 10.0 mi West 4.6 mph - N/A   Clear
11:15 AM 62.6 °F 46.4 °F 55% 30.09 in 10.0 mi West 5.8 mph - N/A   Clear
11:35 AM 62.6 °F 46.4 °F 55% 30.08 in 10.0 mi West 4.6 mph - N/A   Clear
11:55 AM 64.4 °F 46.4 °F 52% 30.07 in 10.0 mi West 3.5 mph - N/A   Clear
12:15 PM 64.4 °F 46.4 °F 52% 30.07 in 10.0 mi NNE 3.5 mph - N/A   Clear
12:35 PM 64.4 °F 48.2 °F 56% 30.07 in 10.0 mi WNW 4.6 mph - N/A   Clear
12:55 PM 64.4 °F 48.2 °F 56% 30.07 in 10.0 mi Calm Calm - N/A   Clear
1:15 PM 64.4 °F 48.2 °F 56% 30.06 in 10.0 mi Calm Calm - N/A   Clear
1:35 PM 64.4 °F 48.2 °F 56% 30.05 in 10.0 mi Calm Calm - N/A   Clear
1:55 PM 66.2 °F 48.2 °F 52% 30.05 in 10.0 mi Calm Calm - N/A   Clear
2:15 PM 66.2 °F 48.2 °F 52% 30.05 in 10.0 mi Calm Calm - N/A   Clear
2:35 PM 66.2 °F 48.2 °F 52% 30.05 in 10.0 mi Calm Calm - N/A   Clear
2:55 PM 66.2 °F 48.2 °F 52% 30.06 in 10.0 mi Calm Calm - N/A   Mostly Cloudy
3:15 PM 66.2 °F 50.0 °F 56% 30.06 in 10.0 mi NNE 4.6 mph - N/A   Mostly Cloudy
3:35 PM 64.4 °F 50.0 °F 59% 30.06 in 10.0 mi North 4.6 mph - N/A   Mostly Cloudy
3:55 PM 62.6 °F 48.2 °F 59% 30.07 in 10.0 mi North 3.5 mph - N/A   Scattered Clouds
4:15 PM 62.6 °F 48.2 °F 59% 30.07 in 10.0 mi NNE 4.6 mph - N/A   Clear
4:35 PM 60.8 °F 48.2 °F 63% 30.08 in 10.0 mi North 4.6 mph - N/A   Clear
4:55 PM 59.0 °F 46.4 °F 63% 30.08 in 10.0 mi North 5.8 mph - N/A   Clear
5:15 PM 57.2 °F 46.4 °F 67% 30.09 in 10.0 mi North 4.6 mph - N/A   Clear
5:35 PM 55.4 °F 48.2 °F 77% 30.10 in 10.0 mi North 6.9 mph - N/A   Scattered Clouds
5:55 PM 57.2 °F 46.4 °F 67% 30.11 in 10.0 mi North 3.5 mph - N/A   Scattered Clouds
6:15 PM 55.4 °F 46.4 °F 72% 30.11 in 10.0 mi NNE 3.5 mph - N/A   Clear
6:35 PM 53.6 °F 46.4 °F 77% 30.11 in 10.0 mi NNE 4.6 mph - N/A   Clear
6:55 PM 53.6 °F 48.2 °F 82% 30.13 in 10.0 mi NNE 5.8 mph - N/A   Scattered Clouds
7:15 PM 57.2 °F 50.0 °F 77% 30.13 in 10.0 mi North 4.6 mph - N/A   Mostly Cloudy
7:35 PM 55.4 °F 48.2 °F 77% 30.13 in 10.0 mi North 5.8 mph - N/A   Scattered Clouds
7:55 PM 53.6 °F 48.2 °F 82% 30.14 in 10.0 mi North 5.8 mph - N/A   Clear
8:15 PM 55.4 °F 50.0 °F 82% 30.14 in 10.0 mi North 6.9 mph - N/A   Mostly Cloudy
8:35 PM 55.4 °F 50.0 °F 82% 30.15 in 10.0 mi North 6.9 mph - N/A   Mostly Cloudy
8:55 PM 55.4 °F 50.0 °F 82% 30.15 in 10.0 mi North 6.9 mph - N/A   Mostly Cloudy
9:15 PM 55.4 °F 50.0 °F 82% 30.15 in 10.0 mi North 4.6 mph - N/A   Overcast
9:35 PM 55.4 °F 48.2 °F 77% 30.16 in 10.0 mi North 4.6 mph - N/A   Mostly Cloudy
9:55 PM 53.6 °F 48.2 °F 82% 30.16 in 10.0 mi North 4.6 mph - N/A   Scattered Clouds
10:15 PM 53.6 °F 48.2 °F 82% 30.17 in 10.0 mi North 5.8 mph - N/A   Mostly Cloudy
10:35 PM 53.6 °F 48.2 °F 82% 30.17 in 10.0 mi North 6.9 mph - N/A   Scattered Clouds
10:55 PM 55.4 °F 48.2 °F 77% 30.17 in 10.0 mi North 5.8 mph - N/A   Mostly Cloudy
11:15 PM 53.6 °F 48.2 °F 82% 30.17 in 10.0 mi North 4.6 mph - N/A   Mostly Cloudy
11:35 PM 53.6 °F 48.2 °F 82% 30.17 in 10.0 mi North 3.5 mph - N/A   Mostly Cloudy
11:55 PM 51.8 °F 48.2 °F 88% 30.17 in 10.0 mi North 3.5 mph - N/A   Mostly Cloudy